TimeEST,TemperatureF,Dew PointF,Humidity,Sea Level PressureIn,VisibilityMPH,Wind Direction,Wind SpeedMPH,Gust SpeedMPH,PrecipitationIn,Events,Conditions,WindDirDegrees,DateUTC
12:53 AM,25.0,18.0,75,30.22,10.0,ENE,6.9,-,N/A,,Clear,70,2012-11-07 05:53:00
1:53 AM,26.1,18.0,71,30.21,10.0,NE,8.1,-,N/A,,Clear,50,2012-11-07 06:53:00
2:53 AM,27.0,18.0,69,30.24,10.0,East,5.8,-,N/A,,Clear,100,2012-11-07 07:53:00
3:53 AM,23.0,17.1,78,30.25,10.0,Calm,Calm,-,N/A,,Clear,0,2012-11-07 08:53:00
4:53 AM,19.9,16.0,85,30.24,10.0,NE,3.5,-,N/A,,Clear,40,2012-11-07 09:53:00
5:53 AM,21.0,18.0,88,30.21,10.0,NNE,6.9,-,N/A,,Clear,30,2012-11-07 10:53:00
6:53 AM,21.9,19.0,89,30.22,10.0,ENE,4.6,-,N/A,,Clear,60,2012-11-07 11:53:00
7:53 AM,25.0,19.9,81,30.24,10.0,ENE,5.8,-,N/A,,Clear,70,2012-11-07 12:53:00
8:53 AM,30.9,21.9,69,30.24,10.0,ENE,13.8,-,N/A,,Clear,60,2012-11-07 13:53:00
9:53 AM,34.0,19.9,56,30.23,10.0,ENE,18.4,24.2,N/A,,Clear,60,2012-11-07 14:53:00
10:53 AM,37.0,19.9,50,30.22,10.0,NE,16.1,-,N/A,,Clear,50,2012-11-07 15:53:00
11:53 AM,37.9,19.9,48,30.20,10.0,NE,18.4,27.6,N/A,,Clear,40,2012-11-07 16:53:00
12:53 PM,37.9,19.9,48,30.18,10.0,ENE,18.4,25.3,N/A,,Clear,60,2012-11-07 17:53:00
1:53 PM,37.0,21.0,52,30.17,10.0,ENE,17.3,-,N/A,,Clear,60,2012-11-07 18:53:00
2:53 PM,37.0,19.9,50,30.17,10.0,NE,12.7,-,N/A,,Clear,40,2012-11-07 19:53:00
3:53 PM,36.0,21.0,55,30.16,10.0,NE,17.3,-,N/A,,Clear,40,2012-11-07 20:53:00
4:53 PM,33.1,19.9,59,30.16,10.0,NNE,12.7,-,N/A,,Clear,30,2012-11-07 21:53:00
5:53 PM,32.0,19.9,61,30.17,10.0,NE,9.2,-,N/A,,Clear,40,2012-11-07 22:53:00
6:53 PM,30.9,19.9,64,30.17,10.0,NE,5.8,-,N/A,,Clear,50,2012-11-07 23:53:00
7:53 PM,30.0,19.9,66,30.17,10.0,NE,6.9,-,N/A,,Clear,50,2012-11-08 00:53:00
8:53 PM,28.0,19.9,72,30.16,10.0,NNE,4.6,-,N/A,,Clear,30,2012-11-08 01:53:00
9:53 PM,28.9,19.9,69,30.15,10.0,NNE,5.8,-,N/A,,Clear,20,2012-11-08 02:53:00
10:53 PM,30.0,21.0,69,30.13,10.0,NNE,8.1,-,N/A,,Clear,30,2012-11-08 03:53:00
11:53 PM,28.9,21.0,72,30.13,10.0,NNE,10.4,-,N/A,,Clear,20,2012-11-08 04:53:00